Date String (YYYY-MM-DD hh:mm:ss) UTC,Instrument flags,Ambient pressure (hPa),Sample flow (lpm),Bypass flow (lpm),Sample temperature (°C),Ambient temperature (°C),ASC tube jacket temperature (°C),LED temperature (°C),Box temperature (°C),Sample RH (%),Span deviation,Mass concentration (μg/m³),Mass concentration (μg/m³),Mass concentration (μg/m³)
DateTimeUTC,F1_M11,P_M11,Q1_M11,Q2_M11,T1_M11,T2_M11,T3_M11,T4_M11,T5_M11,U1_M11,ZSPAN_M11,X0_M11,X2_M11,X1_M11
2022-02-26 20:00:00,,0830.9,5.00,0.00,23.3,22.6,00.0,32.3,25.1,07.2,0000.2,0020.59,0015.06,0014.20
2022-02-26 20:01:00,,0830.8,5.00,0.00,23.3,22.6,00.0,32.3,25.1,07.2,0000.2,0020.66,0015.13,0014.25
2022-02-26 20:02:00,,0830.9,5.01,0.00,23.3,22.6,00.0,32.3,25.1,07.4,0000.4,0020.70,0015.18,0014.27
2022-02-26 20:03:00,,0830.8,5.00,0.00,23.3,22.7,00.0,32.3,25.1,07.2,0000.7,0020.60,0015.16,0014.26
2022-02-26 20:04:00,,0830.8,5.00,0.00,23.4,22.7,00.0,32.3,25.2,07.4,0000.8,0020.73,0015.16,0014.24
2022-02-26 20:05:00,,0830.8,4.99,0.00,23.4,22.7,00.0,32.3,25.2,07.3,0000.8,0020.79,0015.15,0014.21
2022-02-26 20:06:00,,0830.8,5.00,0.00,23.4,22.7,00.0,32.3,25.2,07.2,0000.8,0020.45,0015.10,0014.11
2022-02-26 20:07:00,,0830.8,5.00,0.00,23.4,22.7,00.0,32.3,25.2,07.2,0000.7,0020.18,0015.00,0014.03
2022-02-26 20:08:00,,0830.8,5.00,0.00,23.4,22.7,00.0,32.3,25.2,07.5,0000.7,0020.08,0014.89,0013.94
2022-02-26 20:09:00,,0830.7,5.00,0.00,23.4,22.8,00.0,32.3,25.3,07.8,0000.7,0019.81,0014.80,0013.86
2022-02-26 20:10:00,,0830.7,5.00,0.00,23.5,22.8,00.0,32.3,25.3,07.7,0000.9,0019.08,0014.64,0013.74
2022-02-26 20:11:00,,0830.8,5.00,0.00,23.5,22.9,00.0,32.3,25.3,07.7,0001.3,0019.12,0014.49,0013.62
2022-02-26 20:12:00,,0830.7,5.00,0.00,23.5,22.9,00.0,32.3,25.3,07.6,0001.1,0019.41,0014.34,0013.48
2022-02-26 20:13:00,,0830.7,4.98,0.00,23.5,22.9,00.0,32.4,25.3,07.3,0000.9,0019.55,0014.16,0013.32
2022-02-26 20:14:00,,0830.7,5.02,0.00,23.5,22.8,00.0,32.4,25.3,07.3,0000.4,0019.50,0014.03,0013.18
2022-02-26 20:15:00,,0830.7,5.00,0.00,23.5,22.8,00.0,32.4,25.3,07.2,0000.4,0019.08,0013.91,0013.05
2022-02-26 20:16:00,,0830.7,5.00,0.00,23.5,22.9,00.0,32.4,25.3,07.4,0000.6,0019.10,0013.76,0012.92
2022-02-26 20:17:00,,0830.7,5.00,0.00,23.5,22.9,00.0,32.4,25.4,07.6,0000.7,0019.38,0013.61,0012.82
2022-02-26 20:18:00,,0830.7,5.00,0.00,23.6,22.9,00.0,32.4,25.4,07.7,0001.0,0019.07,0013.41,0012.65
2022-02-26 20:19:00,,0830.7,5.00,0.00,23.6,22.9,00.0,32.4,25.4,07.7,0001.1,0019.02,0013.27,0012.50
2022-02-26 20:20:00,,0830.7,5.00,0.00,23.6,23.0,00.0,32.4,25.4,07.9,0001.2,0018.85,0013.10,0012.33
2022-02-26 20:21:00,,0830.7,5.00,0.00,23.6,23.0,00.0,32.5,25.5,07.8,0001.2,0018.75,0012.98,0012.20
2022-02-26 20:22:00,,0830.7,4.99,0.00,23.6,23.0,00.0,32.5,25.5,07.6,0000.8,0018.27,0012.80,0012.05
2022-02-26 20:23:00,,0830.7,5.00,0.00,23.7,23.0,00.0,32.5,25.5,07.8,0001.0,0018.02,0012.65,0011.91
2022-02-26 20:24:00,,0830.7,5.00,0.00,23.7,23.1,00.0,32.5,25.5,07.6,0000.9,0017.39,0012.50,0011.78
2022-02-26 20:25:00,,0830.7,5.01,0.00,23.7,23.1,00.0,32.5,25.5,07.8,0001.0,0017.05,0012.32,0011.65
2022-02-26 20:26:00,,0830.8,5.00,0.00,23.7,23.1,00.0,32.5,25.5,07.6,0001.3,0016.95,0012.19,0011.52
2022-02-26 20:27:00,,0830.8,5.00,0.00,23.7,23.1,00.0,32.6,25.6,07.6,0001.3,0016.77,0012.07,0011.40
2022-02-26 20:28:00,,0830.7,5.00,0.00,23.8,23.2,00.0,32.6,25.6,07.5,0001.0,0015.99,0011.96,0011.29
2022-02-26 20:29:00,,0830.7,5.00,0.00,23.8,23.2,00.0,32.6,25.6,07.6,0000.9,0016.03,0011.95,0011.26
2022-02-26 20:30:00,,0830.7,5.01,0.00,23.8,23.2,00.0,32.6,25.7,07.3,0000.7,0016.27,0011.96,0011.26
2022-02-26 20:31:00,,0830.7,5.01,0.00,23.8,23.2,00.0,32.6,25.7,07.4,0000.6,0016.55,0011.99,0011.29
2022-02-26 20:32:00,,0830.7,4.99,0.00,23.8,23.2,00.0,32.7,25.6,07.3,0000.3,0016.68,0012.05,0011.36
2022-02-26 20:33:00,,0830.7,4.99,0.00,23.9,23.2,00.0,32.7,25.7,07.5,0000.2,0016.92,0012.17,0011.45
2022-02-26 20:34:00,,0830.7,5.01,0.00,23.9,23.2,00.0,32.7,25.7,07.7,-000.0,0016.60,0012.24,0011.51
2022-02-26 20:35:00,,0830.7,5.00,0.00,23.9,23.2,00.0,32.7,25.7,07.4,0000.5,0016.66,0012.32,0011.58
2022-02-26 20:36:00,,0830.7,5.00,0.00,23.9,23.3,00.0,32.7,25.7,07.5,0000.9,0016.76,0012.39,0011.63
2022-02-26 20:37:00,,0830.7,4.99,0.00,23.9,23.3,00.0,32.7,25.8,07.7,0000.9,0017.39,0012.45,0011.69
2022-02-26 20:38:00,,0830.8,5.00,0.00,23.9,23.3,00.0,32.8,25.8,07.5,0000.3,0017.92,0012.56,0011.77
2022-02-26 20:39:00,,0830.8,4.99,0.00,24.0,23.3,00.0,32.8,25.9,07.6,0000.1,0018.12,0012.64,0011.84
2022-02-26 20:40:00,,0830.7,5.00,0.00,23.9,23.3,00.0,32.8,25.7,07.8,0000.1,0018.23,0012.70,0011.91
2022-02-26 20:41:00,,0830.7,5.00,0.00,23.9,23.3,00.0,32.8,25.8,07.4,0000.3,0017.88,0012.70,0011.94
2022-02-26 20:42:00,,0830.7,5.00,0.00,24.0,23.3,00.0,32.8,25.9,07.3,0000.5,0017.81,0012.74,0011.99
2022-02-26 20:43:00,,0830.7,5.00,0.00,24.0,23.3,00.0,32.8,25.9,07.4,0000.8,0017.90,0012.73,0012.00
2022-02-26 20:44:00,,0830.7,5.00,0.00,24.0,23.4,00.0,32.8,25.9,07.5,0000.7,0017.76,0012.72,0012.00
2022-02-26 20:45:00,,0830.7,5.00,0.00,24.0,23.4,00.0,32.9,26.0,07.6,0000.8,0018.31,0012.85,0012.09
2022-02-26 20:46:00,,0830.8,5.00,0.00,24.0,23.4,00.0,32.9,26.0,07.4,0000.1,0018.40,0012.91,0012.15
2022-02-26 20:47:00,,0830.7,5.00,0.00,24.1,23.5,00.0,32.9,26.0,07.4,-000.4,0019.03,0012.99,0012.23
2022-02-26 20:48:00,,0830.7,5.00,0.00,24.1,23.5,00.0,32.9,26.0,07.3,-000.6,0019.06,0013.06,0012.32
2022-02-26 20:49:00,,0830.7,5.00,0.00,24.1,23.5,00.0,32.9,26.0,07.4,-000.6,0019.23,0013.14,0012.41
2022-02-26 20:50:00,,0830.7,5.00,0.00,24.1,23.5,00.0,32.9,26.1,07.3,-000.4,0019.25,0013.24,0012.52
2022-02-26 20:51:00,,0830.7,5.00,0.00,24.2,23.5,00.0,33.0,26.1,07.5,-000.4,0019.28,0013.32,0012.59
2022-02-26 20:52:00,,0830.7,5.00,0.00,24.2,23.5,00.0,33.0,26.1,07.3,-000.5,0019.50,0013.42,0012.65
2022-02-26 20:53:00,,0830.7,5.00,0.00,24.2,23.5,00.0,33.0,26.1,07.3,-000.3,0019.55,0013.50,0012.70
2022-02-26 20:54:00,,0830.7,5.00,0.00,24.2,23.5,00.0,33.0,26.1,07.3,-000.3,0019.48,0013.61,0012.78
2022-02-26 20:55:00,,0830.7,5.00,0.00,24.2,23.6,00.0,33.0,26.1,07.2,-000.2,0019.64,0013.71,0012.85
2022-02-26 20:56:00,,0830.7,5.00,0.00,24.2,23.6,00.0,33.1,26.2,07.1,-000.4,0019.41,0013.71,0012.88
2022-02-26 20:57:00,,0830.7,5.00,0.00,24.3,23.6,00.0,33.1,26.2,07.3,0000.1,0019.33,0013.71,0012.90
2022-02-26 20:58:00,,0830.8,5.00,0.00,24.3,23.7,00.0,33.1,26.2,07.2,0000.6,0018.77,0013.70,0012.91
2022-02-26 20:59:00,,0830.7,5.01,0.00,24.3,23.7,00.0,33.1,26.2,07.1,0000.6,0018.19,0013.71,0012.93
